Tracking 25693 objects as of 30-Jun-2022
HD Live streaming from Space Station
objects crossing your sky now

COSMOS 1088

Track COSMOS 1088 now!
10-day predictions
COSMOS 1088 is classified as:


NORAD ID: 11303
Int'l Code: 1979-024H
Perigee: 1,472.2 km
Apogee: 1,554.2 km
Inclination: 74.0 °
Period: 116.1 minutes
Semi major axis: 7884 km
RCS: 0.7099 m2 (medium)
Launch date: March 15, 1979
Source: Commonwealth of Independent States (former USSR) (CIS)
Launch site: PLESETSK MISSILE AND SPACE COMPLEX (PKMTR)
aabbcc
Your satellite tracking list
Your tracking list is empty




NASA's NSSDC Master Catalog

Two Line Element Set (TLE):
1 11303U 79024H   22181.32762182 -.00000028  00000-0 -89309-4 0  9990
2 11303  74.0331 123.6566 0051954 329.7590 146.4675 12.40130414960015
Source of the keplerian elements: AFSPC